Location: Richmond
(37.5540°N, 77.4610°W)
Time: 14:57:53
(UTC-05:00)

ISS - Visible Passes

Search period start: 18 January 2018 00:00
Search period end: 28 January 2018 00:00
Orbit: 402 x 407 km, 51.6° (Epoch: 18 January)

Date Brightness Start Highest point End Pass type
(mag) Time Alt. Az. Time Alt. Az. Time Alt. Az.
18 Jan -1.4 06:13:29 11° SW 06:13:29 11° SW 06:14:22 10° SW visible
19 Jan -0.9 05:23:53 10° S 05:23:53 10° S 05:23:53 10° S visible
22 Jan -1.4 19:19:53 10° SSW 19:20:45 16° SSW 19:20:45 16° SSW visible
23 Jan -2.0 18:28:31 10° S 18:30:42 17° SE 18:31:07 17° ESE visible
24 Jan -3.4 19:11:19 10° SW 19:14:04 60° WSW 19:14:04 60° WSW visible
25 Jan -3.4 18:19:09 10° SSW 18:22:16 44° SE 18:24:13 20° ENE visible
25 Jan -0.5 19:56:20 10° W 19:56:54 13° WNW 19:56:54 13° WNW visible
26 Jan -2.6 19:03:22 10° W 19:06:22 34° NNW 19:06:58 31° N visible
27 Jan -3.6 18:10:42 10° WSW 18:13:56 65° NW 18:16:58 11° NE visible
27 Jan -0.6 19:49:23 10° NW 19:49:37 11° NW 19:49:37 11° NW visible
